www.pogodaiklimat.ru

Погода и климат >> Архив погоды >> Россия >> Якутия >> Усть-Оленек


ПОГОДА на Усть-Оленеке

  • Прогноз погоды на Усть-Оленеке
  • Монитор погоды на Усть-Оленеке

АРХИВ ПОГОДЫ на Усть-Оленеке

Время (UTC), дата Ветер
(напр.,м/с)
 
Видим.   Явления Облачность Т
(С)
Тd
(С)
f
(%)
Тe
(С)
Тes
(С)
Комфортность P
(гПа)
Po
(гПа)
Тmin
(С)
Tmax
(С)
R
(мм)
R24
(мм)
S
(см)
12 17.01 Ю 5 20 км позёмок 4/0
[Ci fib]
-33.2 -37.0 69 -47 -47 опасность
обморожения
1014.3 1012.1 -27.4 0.0
15 17.01 Ю 4 20 км {метель} 4/0
[Ci fib]
-34.2 -37.8 70 -46 -46 опасность
обморожения
1015.6 1013.4
18 17.01 Ю 3 20 км {метель} 3/0
[Ci fib]
-35.4 -39.0 69 -46 -46 опасность
обморожения
1016.7 1014.5
21 17.01 Ю 3 20 км 3/0
[Ci fib]
-35.6 -39.0 71 -46 -46 опасность
обморожения
1018.1 1015.9
00 18.01 Ю 2 20 км 3/0
[Ci fib]
-36.6 -40.1 70 -45 -45 опасность
обморожения
1018.6 1016.4 -36.6 15
03 18.01 Ю 2 20 км 10/0
[Ci fib]
-37.2 -40.8 69 -46 -46 опасность
обморожения
1019.1 1016.9 -37.5
06 18.01 Ю 4 20 км 10/0
[Ci fib]
-37.7 -41.2 70 -51 -51 опасность
обморожения
1019.7 1017.5
09 18.01 Ю 3 20 км 3/0
[Ci fib]
-38.7 -42.0 71 -50 -50 опасность
обморожения
1020.0 1017.8
12 18.01 Ю 4 20 км ясно -38.3 -41.6 71 -51 -51 опасность
обморожения
1020.2 1018.0 -36.6
15 18.01 Ю 4 20 км ясно -38.3 -41.6 71 -51 -51 опасность
обморожения
1020.0 1017.8
18 18.01 Ю 6 20 км позёмок 10/0
[Ci fib]
-37.6 -41.2 69 -53 -53 опасность
обморожения
1019.0 1016.8
21 18.01 Ю 7 20 км позёмок 8/0
[Ci fib]
-35.8 -39.4 69 -52 -52 опасность
обморожения
1017.4 1015.2
00 19.01 Ю 6
{10}
20 км позёмок 8/0
[Ci fib]
-35.9 -39.4 70 -51 -51 опасность
обморожения
1016.5 1014.3 -38.8 16
03 19.01 Ю 7
{10}
20 км позёмок 4/0
[Ci fib]
-33.5 -37.2 69 -49 -49 опасность
обморожения
1015.2 1013.0
06 19.01 Ю 7
{11}
20 км позёмок 3/0
[Ci fib]
-32.4 -36.2 69 -48 -48 опасность
обморожения
1013.8 1011.6
09 19.01 Ю 6
{10}
20 км позёмок 6/0
[Ci fib]
-32.7 -36.5 69 -47 -47 опасность
обморожения
1012.5 1010.3
12 19.01 Ю 7
{11}
20 км позёмок 3/0
[Ci fib]
-32.1 -35.7 70 -47 -47 опасность
обморожения
1011.8 1009.6 -31.5
15 19.01 Ю 7-10
{12}
20 км позёмок 4/0
[Ci fib]
-32.0 -35.7 70 -47 -47 опасность
обморожения
1010.8 1008.6
18 19.01 Ю 6-10
{11}
20 км позёмок 4/0
[Ci fib]
-32.9 -36.5 70 -47 -47 опасность
обморожения
1010.3 1008.1
21 19.01 Ю 6
{11}
20 км позёмок 4/0
[Ci fib]
-32.7 -36.5 69 -47 -47 опасность
обморожения
1009.4 1007.2
00 20.01 Ю 5
{10}
20 км позёмок 3/0
[Ci fib]
-33.2 -37.0 69 -47 -47 опасность
обморожения
1008.5 1006.3 -33.3 17
03 20.01 Ю 6
{11}
20 км позёмок 3/0
[Ci fib]
-32.8 -36.5 69 -47 -47 опасность
обморожения
1006.9 1004.7 -33.4
06 20.01 ЮВ 6
{10}
20 км позёмок 3/0
[Ci fib]
-33.0 -36.7 69 -47 -47 опасность
обморожения
1006.5 1007.3
09 20.01 Ю 6
{11}
20 км позёмок 1/0
[Ci fib]
-32.9 -36.5 70 -47 -47 опасность
обморожения
1006.2 1004.0
12 20.01 Ю 2 20 км {метель} ясно -33.7 -37.2 71 -42 -42 опасность
обморожения
1006.2 1004.0 -32.7
15 20.01 Ю 2 20 км 6/0
[Ci fib]
-34.2 -37.8 70 -42 -42 опасность
обморожения
1006.7 1004.6
18 20.01 Ю 3 20 км 6/0
[Ci fib]
-33.7 -37.2 71 -44 -44 опасность
обморожения
1006.0 1003.9
21 20.01 Ю 2 20 км 8/0
[Ci fib]
-35.2 -38.7 70 -44 -44 опасность
обморожения
1006.3 1004.2
00 21.01 штиль 0 10 км слаб. снег 10/0
[Cs]
-34.9 -38.4 70 -35 -35 опасность
обморожения
1007.0 1004.9 -35.7 0.0 15
03 21.01 штиль 0 20 км {снег} 10/0
[Ac trans Cs]
-35.8 -39.4 69 -36 -36 опасность
обморожения
1008.4 1006.9 -35.8
06 21.01 штиль 0 20 км {снег} 4/0
[Ci fib]
-36.1 -39.7 69 -36 -36 опасность
обморожения
1009.9 1007.7
09 21.01 штиль 0 20 км 10/0
[Ci fib]
-35.8 -39.4 69 -36 -36 опасность
обморожения
1011.9 1009.7
12 21.01 Ю 1 20 км 10/0
[Ac trans Ci fib]
-35.3 -39.0 69 -40 -40 опасность
обморожения
1014.6 1012.4 -34.8 0.0
15 21.01 штиль 0 20 км 8/0
[Ci sp]
-36.4 -40.1 68 -36 -36 опасность
обморожения
1016.0 1013.8
18 21.01 штиль 0 20 км 3/0
[Ci fib]
-36.5 -40.1 69 -37 -37 опасность
обморожения
1017.9 1015.7
21 21.01 штиль 0 20 км 3/0
[Ci fib]
-36.6 -40.1 70 -37 -37 опасность
обморожения
1021.0 1018.8
00 22.01 Ю 1 20 км 3/0
[Ci fib]
-37.1 -40.8 68 -42 -42 опасность
обморожения
1022.4 1020.2 -37.4 15
03 22.01 Ю 2 20 км ясно -39.3 -42.9 68 -48 -48 опасность
обморожения
1024.0 1021.8 -39.3
06 22.01 ЮВ 3 20 км 8/0
[Ci fib]
-39.1 -42.5 70 -51 -51 опасность
обморожения
1025.6 1023.4
09 22.01 ЮВ 3 20 км 4/0
[Ci fib]
-39.2 -42.5 71 -51 -51 опасность
обморожения
1027.3 1025.1
12 22.01 Ю 4 20 км 3/0
[Ci fib]
-40.3 -43.9 68 -54 -54 опасность
обморожения
1027.9 1025.7 -37.0
15 22.01 Ю 3 20 км 4/0
[Ci fib]
-40.0 -43.4 70 -52 -52 опасность
обморожения
1028.3 1026.1
18 22.01 Ю 3 20 км 5/0
[Ci fib]
-39.3 -42.9 68 -51 -51 опасность
обморожения
1028.3 1026.1
21 22.01 Ю 3 10 км слаб. снег 10/0
[Ac trans Cs]
-38.6 -42.0 70 -50 -50 опасность
обморожения
1028.0 1025.8
00 23.01 Ю 3 20 км в посл. час снег 10/0
[Ac trans Cs]
-37.9 -41.6 68 -49 -49 опасность
обморожения
1027.5 1025.3 -40.5 0.0 15
03 23.01 Ю 6
{10}
20 км позёмок 10/0
[Ac lent Cs]
-37.9 -41.6 68 -54 -54 опасность
обморожения
1026.5 1024.3
06 23.01 Ю 6
{11}
20 км позёмок 10/0
[Ac lent Cs]
-37.2 -40.8 69 -53 -53 опасность
обморожения
1026.2 1024.0
09 23.01 ЮВ 7
{10}
20 км позёмок 10/0
[Cs]
-37.8 -41.2 70 -55 -55 опасность
обморожения
1025.9 1023.7
12 23.01 Ю 7-10
{12}
10 км слаб. снег {метель} 10/0
[Cs]
-37.0 -39.8 75 -54 -54 опасность
обморожения
1025.4 1023.2 -37.0 0.0
15 23.01 Ю 6
{11}
20 км позёмок {снег} 10/0
[Cs]
-37.0 -39.8 75 -53 -53 опасность
обморожения
1024.9 1022.7
18 23.01 Ю 7
{10}
20 км позёмок {снег} 10/0
[Cs]
-36.5 -40.1 69 -53 -53 опасность
обморожения
1024.5 1022.3
21 23.01 Ю 6
{10}
20 км позёмок 10/0
[Cs]
-35.8 -39.4 69 -51 -51 опасность
обморожения
1023.9 1021.7
00 24.01 Ю 6
{11}
20 км позёмок 10/0
[Cs]
-35.8 -39.4 69 -51 -51 опасность
обморожения
1022.7 1020.5 -37.2 0.0 14
03 24.01 Ю 6
{10}
20 км позёмок 10/0
[Ac lent Cs]
-36.5 -40.1 69 -52 -52 опасность
обморожения
1022.1 1019.9
06 24.01 Ю 7-10
{12}
20 км позёмок 10/0
[Ac lent Cs]
-35.9 -38.7 75 -52 -52 опасность
обморожения
1021.9 1019.7

 

Местоположение метеостанции Усть-Оленек (Якутия, Россия): широта 73.00 долгота 119.80 высота над уровнем моря 15 м.

В архиве по умолчанию представлена погода на Усть-Оленеке за последнюю неделю. Архивные данные за месяц целиком и за предыдущие месяцы, начиная с января 2011 года, Вы можете получить, выбрав интересующий диапазон дат из раскрывающегося списка и нажав кнопку "Ввод!".


*Определитесь, кто Вы:
робот инопланетянин человек

Внимание! Время в таблицах - всемирное. Для получения местного времени необходимо прибавить поправку, которая равна 9 ч.

Смотрите также архив погоды в соседних городах и на ближайших метеорологических станциях:

Погода в Тюмяти (Якутия, Россия) (173 км)
Погода в Анабаре (Якутия, Россия) (205 км)
Погода на Столб Острове (Якутия, Россия) (225 км)
Погода в Саскылахе (Якутия, Россия) (225 км)
Погода на Острове Преображения (Якутия, Россия) (282 км)
Погода на Мысе Быков (Якутия, Россия) (330 км)
Погода в Тикси (Якутия, Россия) (346 км)
Погода в Кюсюре (Якутия, Россия) (368 км)
Погода в Джалинде (Якутия, Россия) (380 км)
Погода в Сухане (Якутия, Россия) (490 км)

Пояснения к столбцам:

Ветер - указаны скорость ветра в м/с - средняя за 10 мин, порывы в срок и между сроками (в фигурных скобках) и направление, откуда дует ветер: С - северный, СВ - северо-восточный, В - восточный, ЮВ - юго-восточный, Ю - южный, ЮЗ - юго-западный, З - западный, СЗ - северо-западный.
Видимость - горизонтальная дальность видимости в метрах или километрах. При видимости от 1 до 10 км при отсутствии осадков обычно наблюдается дымка, при ухудшении видимости до 1 км и менее - туман. В сухую погоду видимость может ухудшаться дымом, пылью или мглою.
Явления - указаны атмосферные явления, наблюдавшиеся в срок или в последний час перед сроком; фигурными скобками обозначены явления, наблюдавшиеся между сроками (за 1-3 часа до срока); квадратными скобками обозначены град или гололедные отложения с указанием их диаметра в мм.
Облачность - указаны через наклонную черту общая и нижняя облачность в баллах и высота нижней границы облаков в метрах; квадратными скобками обозначены формы облаков: Ci - перистые, Cs - перисто-слоистые, Cc - перисто-кучевые, Ac - высококучевые, As - высокослоистые, Sc - слоисто-кучевые, Ns - слоисто-дождевые, Cu - кучевые, Cb - кучево-дождевые. Подробнее классификацию облаков см. в Атласе облаков (PDF).
T - Температура воздуха - температура, измеренная на высоте 2 м над землей.
Td - Температура точки росы - температура, при понижении до которой содержащийся в воздухе водяной пар достигнет насыщения.
f - Относительная влажность воздуха - влажноcть воздуха, измеренная на высоте 2 м над землей.
Te - Эффективная температура - температура, которую ощущает одетый по сезону человек в тени. Характеристика душности погоды. При расчете учитывается влияние влажности воздуха и скорости ветра на теплоощущения человека.
Tes - Эффективная температура на солнце - температура, которую ощущает человек, с поправкой на солнечный нагрев. Характеристика знойности погоды. Зависит от высоты солнца над горизонтом, облачности и скорости ветра. Ночью, в пасмурную погоду, а также при ветре 12 м/с и более поправка равна нулю.
P - Атмосферное давление - приведенное к уровню моря атмосферное давление.
Po - Атмосферное давление - измеренное на уровне метеостанции атмосферное давление.
Tmin - Минимальная температура - минимум температуры воздуха на высоте 2 м над землей.
Tmax - Максимальная температура - максимум температуры воздуха на высоте 2 м над землей.
R - Количество осадков - Количество выпавших осадков за период времени, мм. При наведении курсора мыши на число - период времени, за который выпало указанное количество осадков.
R24 - Количество осадков - Количество выпавших осадков за 24 часа, мм.
S - Снежный покров - Высота снежного покрова, см. При наведении курсора мыши на число - состояние снежного покрова и степень покрытия местности в баллах.